Flag for Germany Weather past 2 weeks in Beckum, North Rhine-Westphalia, Germany

Now
88 °F

Passing clouds.


Feels Like: 85 °F
Forecast: 58 / 81 °F
Wind: 8 mph from Southeast

Location: Dortmund / Wickede

Current Time: Aug 3, 2015 at 7:31:43 PM

Latest Report: Aug 3, 2015 at 6:50 PM


Visibility: N/A

Pressure: 29.92 "Hg

Humidity: 24%

Dew point: 46 °F

Location of BeckumLocation

Historic Weather in Beckum — Graph

°F

Beckum temperature yesterday

Maximum temperature yesterday: 77 °F (at 3:50 PM)
Minimum temperature yesterday: 50 °F (at 5:20 AM)
Average temperature yesterday: 68 °F

Past Weeks' High & Low Weather Summary

 TemperatureHumidityPressure
High88 °F (Aug 3, 3:20 PM)88% (Jul 20, 5:20 AM)30.15 "Hg (Jul 20, 5:20 AM)
Low45 °F (Jul 31, 5:20 AM)21% (Aug 3, 3:50 PM)29.50 "Hg (Jul 25, 7:50 AM)
Average64 °F62%29.89 "Hg
* Reported Jul 19 6:20 PM — Aug 3 6:20 PM, Beckum, Weather by CustomWeather, © 2015

Note: Actual official high and low records may vary slightly from our data, if they occured in-between our weather recording intervals... More about our weather records

Advertising

Beckum weather history for previous 24 hours

 ConditionsComfort  
Time TempWeatherWind HumidityBarometerVisibility
6:20 PM
Mon, Aug 3
88 °FPassing clouds.8 mph24%29.92 "HgN/A
5:50 PM88 °FPassing clouds.8 mph24%29.95 "HgN/A
5:20 PM88 °FPassing clouds.10 mph25%29.95 "HgN/A
4:50 PM88 °FPassing clouds.9 mph22%29.95 "HgN/A
4:20 PM88 °FPassing clouds.9 mph21%29.95 "HgN/A
3:50 PM88 °FPassing clouds.12 mph21%29.95 "HgN/A
3:20 PM88 °FPassing clouds.13 mph22%29.98 "HgN/A
2:20 PM86 °FPassing clouds.14 mph22%29.98 "HgN/A
1:50 PM86 °FPassing clouds.14 mph24%29.98 "HgN/A
1:20 PM86 °FPassing clouds.14 mph25%29.98 "HgN/A
12:50 PM84 °FPassing clouds.15 mph27%29.98 "HgN/A
12:20 PM86 °FPassing clouds.15 mph27%29.98 "HgN/A
11:50 AM84 °FPassing clouds.13 mph29%29.98 "HgN/A
11:20 AM82 °FPassing clouds.10 mph30%30.01 "HgN/A
10:50 AM81 °FSunny.13 mph34%30.01 "Hg10 mi
10:20 AM79 °FPassing clouds.13 mph34%30.01 "HgN/A
9:50 AM79 °FPassing clouds.13 mph39%29.98 "HgN/A
9:20 AM75 °FSunny.10 mph39%29.98 "Hg10 mi
8:50 AM72 °FSunny.8 mph47%29.98 "Hg10 mi
8:20 AM70 °FSunny.7 mph46%29.98 "Hg10 mi
7:50 AM68 °FSunny.7 mph49%29.98 "Hg10 mi
7:20 AM64 °FSunny.8 mph56%29.98 "Hg10 mi
6:50 AM63 °FClear.8 mph59%29.98 "Hg10 mi
6:20 AM63 °FClear.8 mph59%29.98 "Hg10 mi
5:50 AM63 °FClear.7 mph59%30.01 "Hg10 mi
5:20 AM61 °FClear.6 mph63%30.01 "Hg10 mi
10:50 PM
Sun, Aug 2
66 °FClear.5 mph46%30.07 "Hg10 mi
10:20 PM66 °FClear.3 mph49%30.07 "Hg10 mi
9:50 PM68 °FSunny.5 mph43%30.07 "Hg10 mi
9:20 PM70 °FSunny.6 mph40%30.07 "Hg10 mi
8:50 PM72 °FSunny.7 mph38%30.07 "Hg10 mi
8:20 PM73 °FSunny.10 mph36%30.07 "Hg10 mi
7:50 PM75 °FSunny.8 mph31%30.07 "Hg10 mi
7:20 PM77 °FSunny.8 mph30%30.07 "Hg10 mi
Weather by CustomWeather, © 2015

See weather overviewHow to use our weather pages